Flag for Germany Weather past 2 weeks in Ganderkesee, Lower Saxony, Germany

Now
59 °F

Passing clouds.


Feels Like: 57 °F
Forecast: 48 / 73 °F
Wind: 12 mph from West

Location: Bremen Airport

Current Time: Jul 31, 2015 at 9:36:23 AM

Latest Report: Jul 31, 2015 at 9:20 AM


Visibility: N/A

Pressure: 30.09 "Hg

Humidity: 68%

Dew point: 48 °F

Location of GanderkeseeLocation

Historic Weather in Ganderkesee — Graph

°F

Ganderkesee temperature yesterday

Maximum temperature yesterday: 64 °F (at 3:20 PM)
Minimum temperature yesterday: 54 °F (at 5:20 AM)
Average temperature yesterday: 58 °F

Past Weeks' High & Low Weather Summary

 TemperatureHumidityPressure
High88 °F (Jul 17, 2:20 PM)100% (Jul 16, 8:20 AM)30.09 "Hg (Jul 16, 8:20 AM)
Low50 °F (Jul 20, 3:50 AM)35% (Jul 17, 4:20 PM)29.42 "Hg (Jul 25, 12:20 PM)
Average63 °F76%29.82 "Hg
* Reported Jul 16 8:20 AM — Jul 31 8:20 AM, Ganderkesee, Weather by CustomWeather, © 2015

Note: Actual official high and low records may vary slightly from our data, if they occured in-between our weather recording intervals... More about our weather records

Advertising

Ganderkesee weather history for previous 24 hours

 ConditionsComfort  
Time TempWeatherWind HumidityBarometerVisibility
8:20 AM
Fri, Jul 31
55 °FSunny.12 mph77%30.07 "Hg10 mi
7:50 AM55 °FSunny.12 mph77%30.07 "Hg10 mi
7:20 AM54 °FPartly sunny.10 mph82%30.07 "HgN/A
6:50 AM54 °FPartly sunny.10 mph82%30.07 "HgN/A
6:20 AM52 °FPassing clouds.9 mph88%30.07 "HgN/A
5:50 AM52 °FPassing clouds.10 mph88%30.07 "HgN/A
5:20 AM52 °FPassing clouds.9 mph88%30.04 "HgN/A
4:50 AM54 °FPassing clouds.9 mph82%30.04 "HgN/A
4:20 AM52 °FPassing clouds.7 mph88%30.04 "HgN/A
3:50 AM52 °FPassing clouds.10 mph94%30.04 "HgN/A
3:20 AM54 °FSprinkles. Passing clouds.12 mph88%30.04 "HgN/A
2:50 AM54 °FClear.10 mph88%30.04 "Hg10 mi
2:20 AM54 °FPassing clouds.9 mph82%30.04 "HgN/A
1:50 AM54 °FPassing clouds.9 mph82%30.04 "HgN/A
1:20 AM54 °FClear.12 mph82%30.04 "Hg10 mi
12:50 AM54 °FClear.9 mph82%30.04 "Hg10 mi
12:20 AM54 °FClear.9 mph82%30.01 "Hg10 mi
11:20 PM
Thu, Jul 30
55 °FClear.10 mph77%30.01 "Hg10 mi
10:50 PM55 °FClear.10 mph77%30.01 "Hg10 mi
10:20 PM54 °FPartly sunny.9 mph82%30.01 "HgN/A
9:50 PM55 °FScattered clouds.9 mph77%30.01 "HgN/A
9:20 PM57 °FScattered clouds.12 mph72%29.98 "HgN/A
8:50 PM57 °FScattered clouds.12 mph72%29.98 "HgN/A
8:20 PM59 °FPartly sunny.12 mph68%29.98 "HgN/A
7:50 PM59 °FPartly sunny.15 mph63%29.95 "HgN/A
7:20 PM59 °FPartly sunny.15 mph68%29.95 "HgN/A
6:50 PM61 °FPartly sunny.16 mph63%29.95 "HgN/A
6:20 PM61 °FPartly sunny.20 mph59%29.95 "HgN/A
5:50 PM63 °FPartly sunny.17 mph64%29.92 "HgN/A
5:20 PM61 °FPartly sunny.20 mph63%29.92 "HgN/A
4:50 PM63 °FPartly sunny.18 mph64%29.92 "HgN/A
4:20 PM63 °FScattered clouds.14 mph64%29.92 "HgN/A
3:50 PM57 °FBroken clouds.17 mph77%29.92 "HgN/A
3:20 PM64 °FBroken clouds.18 mph60%29.89 "HgN/A
2:50 PM63 °FScattered clouds.20 mph68%29.89 "HgN/A
2:20 PM61 °FScattered clouds.20 mph63%29.89 "HgN/A
1:50 PM63 °FScattered clouds.21 mph68%29.89 "HgN/A
1:20 PM59 °FSprinkles. Broken clouds.22 mph72%29.89 "HgN/A
12:50 PM57 °FScattered clouds.20 mph82%29.89 "HgN/A
12:20 PM55 °FSprinkles. Partly sunny.23 mph88%29.89 "Hg5 mi
11:50 AM59 °FBroken clouds.14 mph77%29.86 "HgN/A
11:20 AM59 °FBroken clouds.20 mph72%29.86 "HgN/A
10:20 AM57 °FSprinkles. Partly sunny.17 mph77%29.83 "HgN/A
9:50 AM59 °FPartly sunny.23 mph72%29.83 "HgN/A
9:20 AM59 °FScattered clouds.20 mph72%29.83 "HgN/A
Weather by CustomWeather, © 2015

See weather overviewHow to use our weather pages